| time (UTC) | temp F | wind direction | speed knots | gust knots | rain 1hr in | rain 24hr in | rain mn in | humidity % | barometer mb |
| 20260904095548 | 73 | 308 | 6.1 | 12.2 | 0.00 | 0.00 | 0.00 | 66 | 970.1 |
| 20260904095113 | 73 | 308 | 8.7 | 13.9 | 0.00 | 0.00 | 0.00 | 67 | 970.1 |
| 20260904094643 | 73 | 330 | 5.2 | 19.1 | 0.00 | 0.00 | 0.00 | 67 | 970.2 |
| 20260904094208 | 74 | 330 | 3.5 | 7.8 | 0.00 | 0.00 | 0.00 | 67 | 970.0 |
| 20260904093733 | 71 | 330 | 3.5 | 11.3 | 0.00 | 0.00 | 0.00 | 67 | 970.5 |
| 20260904093303 | 71 | 39 | 7.8 | 20.0 | 0.00 | 0.00 | 0.00 | 67 | 970.3 |
| 20260904092838 | 71 | 292 | 7.8 | 17.4 | 0.00 | 0.00 | 0.00 | 67 | 970.5 |
| 20260904092353 | 72 | 292 | 7.8 | 17.4 | 0.00 | 0.00 | 0.00 | 67 | 970.5 |
| 20260904091933 | 72 | 292 | 4.3 | 19.1 | 0.00 | 0.00 | 0.00 | 69 | 970.5 |
| 20260904091523 | 69 | 147 | 4.3 | 12.2 | 0.00 | 0.00 | 0.00 | 69 | 970.6 |
| 20260904091103 | 69 | 318 | 1.7 | 15.6 | 0.00 | 0.00 | 0.00 | 69 | 970.8 |
| 20260904090633 | 69 | 351 | 7.8 | 9.6 | 0.00 | 0.00 | 0.00 | 75 | 970.8 |
| 20260904090208 | 69 | 10 | 7.8 | 13.9 | 0.00 | 0.00 | 0.00 | 75 | 970.7 |
| 20260904085713 | 69 | 249 | 3.5 | 7.8 | 0.00 | 0.00 | 0.00 | 75 | 970.8 |
| 20260904085308 | 69 | 161 | 1.7 | 7.8 | 0.00 | 0.00 | 0.00 | 75 | 970.7 |
| 20260904084843 | 68 | 161 | 4.3 | 7.8 | 0.00 | 0.00 | 0.00 | 75 | 970.9 |
| 20260904084358 | 68 | 198 | 2.6 | 2.6 | 0.00 | 0.00 | 0.00 | 75 | 970.9 |
| 20260904083948 | 68 | 143 | 1.7 | 12.2 | 0.00 | 0.00 | 0.00 | 75 | 971.1 |
| 20260904083528 | 68 | 175 | 1.7 | 4.3 | 0.00 | 0.00 | 0.00 | 75 | 971.0 |
| 20260904083058 | 67 | 175 | 1.7 | 6.1 | 0.00 | 0.00 | 0.00 | 75 | 971.0 |
| 20260904082613 | 67 | 138 | 1.7 | 2.6 | 0.00 | 0.00 | 0.00 | 79 | 971.1 |
| 20260904082128 | 67 | 38 | 1.7 | 4.3 | 0.00 | 0.00 | 0.00 | 79 | 971.2 |
| 20260904081648 | 67 | 38 | 4.3 | 4.3 | 0.00 | 0.00 | 0.00 | 79 | 971.2 |
| 20260904081219 | 67 | 340 | 0.9 | 0.9 | 0.00 | 0.00 | 0.00 | 79 | 971.2 |
| 20260904080748 | 67 | 340 | 0.9 | 6.1 | 0.00 | 0.00 | 0.00 | 79 | 971.3 |
| 20260904080333 | 67 | 340 | 4.3 | 6.1 | 0.00 | 0.00 | 0.00 | 79 | 971.5 |
| 20260904075908 | 67 | 103 | 0.9 | 4.3 | 0.00 | 0.00 | 0.00 | 79 | 971.3 |
| 20260904075449 | 67 | 103 | 0.9 | 9.6 | 0.00 | 0.00 | 0.00 | 79 | 971.4 |
| 20260904075003 | 66 | 103 | 0.9 | 2.6 | 0.00 | 0.00 | 0.00 | 79 | 971.5 |
| 20260904074528 | 66 | 103 | 0.9 | 6.1 | 0.00 | 0.00 | 0.00 | 79 | 971.6 |
| 20260904074059 | 66 | 103 | 0.9 | 0.9 | 0.00 | 0.00 | 0.00 | 79 | 971.5 |
| 20260904073618 | 66 | 325 | 0.9 | 6.1 | 0.00 | 0.00 | 0.00 | 79 | 971.7 |
| 20260904073153 | 66 | 352 | 0.0 | 6.1 | 0.00 | 0.00 | 0.00 | 79 | 971.5 |
| 20260904072728 | 66 | 171 | 1.7 | 7.8 | 0.00 | 0.00 | 0.00 | 80 | 971.7 |
| 20260904072313 | 66 | 289 | 3.5 | 4.3 | 0.00 | 0.00 | 0.00 | 80 | 971.6 |
| 20260904071843 | 65 | 289 | 2.6 | 9.6 | 0.00 | 0.00 | 0.00 | 81 | 971.7 |
| 20260904071413 | 65 | 289 | 3.5 | 9.6 | 0.00 | 0.00 | 0.00 | 81 | 971.5 |
| 20260904070958 | 65 | 349 | 3.5 | 6.1 | 0.00 | 0.00 | 0.00 | 81 | 971.8 |
| 20260904070533 | 65 | 146 | 2.6 | 6.1 | 0.00 | 0.00 | 0.00 | 81 | 971.7 |
| 20260904070058 | 65 | 259 | 1.7 | 4.3 | 0.00 | 0.00 | 0.00 | 81 | 971.7 |
| 20260904065619 | 65 | 259 | 0.0 | 2.6 | 0.00 | 0.00 | 0.00 | 81 | 971.6 |
| 20260904065153 | 64 | 259 | 0.0 | 2.6 | 0.00 | 0.00 | 0.00 | 81 | 971.6 |
| 20260904064718 | 64 | 310 | 0.9 | 2.6 | 0.00 | 0.00 | 0.00 | 81 | 971.7 |
| 20260904064238 | 64 | 242 | 0.9 | 4.3 | 0.00 | 0.00 | 0.00 | 81 | 971.6 |
| 20260904063813 | 62 | 196 | 1.7 | 4.3 | 0.00 | 0.00 | 0.00 | 81 | 971.6 |
| 20260904063348 | 62 | 196 | 1.7 | 2.6 | 0.00 | 0.00 | 0.00 | 82 | 971.7 |
| 20260904062908 | 62 | 196 | 1.7 | 2.6 | 0.00 | 0.00 | 0.00 | 85 | 971.6 |
| 20260904062418 | 62 | 196 | 1.7 | 2.6 | 0.00 | 0.00 | 0.00 | 85 | 971.7 |
| 20260904061958 | 61 | 4 | 0.9 | 4.3 | 0.00 | 0.00 | 0.00 | 85 | 971.5 |
| 20260904061553 | 61 | 4 | 0.0 | 0.0 | 0.00 | 0.00 | 0.00 | 85 | 971.9 |
| 20260904061128 | 61 | 4 | 1.7 | 0.0 | 0.00 | 0.00 | 0.00 | 85 | 971.7 |
| 20260904060646 | 60 | 4 | 0.0 | 0.0 | 0.00 | 0.00 | 0.00 | 87 | 971.8 |
| 20260904060218 | 60 | 4 | 0.0 | 0.9 | 0.00 | 0.00 | 0.00 | 87 | 971.7 |
| 20260904055738 | 60 | 4 | 0.0 | 0.9 | 0.00 | 0.00 | 0.00 | 87 | 971.9 |
| 20260904055323 | 60 | 4 | 0.0 | 0.9 | 0.00 | 0.00 | 0.00 | 84 | 972.0 |
| 20260904054843 | 60 | 4 | 0.0 | 0.0 | 0.00 | 0.00 | 0.00 | 87 | 971.7 |
| 20260904054358 | 60 | 4 | 0.0 | 0.9 | 0.00 | 0.00 | 0.00 | 88 | 971.8 |
| 20260904053918 | 60 | 351 | 0.0 | 0.9 | 0.00 | 0.00 | 0.00 | 88 | 971.6 |
| 20260904053508 | 59 | 342 | 0.0 | 0.9 | 0.00 | 0.00 | 0.00 | 88 | 971.7 |
| 20260904053028 | 59 | 63 | 0.0 | 0.9 | 0.00 | 0.00 | 0.00 | 90 | 971.9 |
| 20260904052608 | 59 | 63 | 0.0 | 0.9 | 0.00 | 0.00 | 0.00 | 90 | 971.9 |
| 20260904052123 | 59 | 63 | 0.0 | 0.9 | 0.00 | 0.00 | 0.00 | 90 | 971.7 |
| 20260904051713 | 59 | 63 | 0.9 | 0.9 | 0.00 | 0.00 | 0.00 | 90 | 971.8 |
| 20260904051248 | 59 | 63 | 0.9 | 0.9 | 0.00 | 0.00 | 0.00 | 90 | 971.8 |
| 20260904050843 | 59 | 63 | 0.0 | 0.9 | 0.00 | 0.00 | 0.00 | 90 | 972.0 |
| 20260904050348 | 59 | 63 | 0.0 | 0.9 | 0.00 | 0.00 | 0.00 | 90 | 971.8 |
| 20260904045938 | 59 | 63 | 0.0 | 0.9 | 0.00 | 0.00 | 0.00 | 90 | 971.9 |
| 20260904045513 | 59 | 63 | 0.0 | 0.0 | 0.00 | 0.00 | 0.00 | 90 | 971.7 |
| 20260904045058 | 59 | 63 | 0.0 | 0.0 | 0.00 | 0.00 | 0.00 | 90 | 971.7 |
| 20260904044608 | 59 | 148 | 0.0 | 0.0 | 0.00 | 0.00 | 0.00 | 90 | 971.8 |
| 20260904044109 | 59 | 148 | 0.0 | 0.9 | 0.00 | 0.00 | 0.00 | 90 | 971.7 |
| 20260904043628 | 59 | 148 | 0.0 | 0.0 | 0.00 | 0.00 | 0.00 | 94 | 971.8 |
| 20260904043203 | 59 | 148 | 0.0 | 0.0 | 0.00 | 0.00 | 0.00 | 94 | 971.9 |
| 20260904042733 | 59 | 148 | 0.0 | 0.9 | 0.00 | 0.00 | 0.00 | 94 | 972.0 |
| 20260904042248 | 58 | 148 | 0.0 | 0.9 | 0.00 | 0.00 | 0.00 | 94 | 972.0 |
| 20260904041818 | 58 | 149 | 0.0 | 0.9 | 0.00 | 0.00 | 0.00 | 94 | 972.2 |
| 20260904041338 | 59 | 336 | 1.7 | 0.0 | 0.00 | 0.00 | 0.00 | 94 | 972.0 |
| 20260904040859 | 59 | 336 | 0.0 | 0.9 | 0.00 | 0.00 | 0.00 | 94 | 972.3 |
| 20260904040413 | 59 | 336 | 0.0 | 0.9 | 0.00 | 0.00 | 0.00 | 94 | 972.0 |
| 20260904035953 | 59 | 336 | 0.0 | 0.0 | 0.00 | 0.00 | 0.00 | 93 | 972.3 |
| 20260904035523 | 59 | 336 | 0.0 | 0.0 | 0.00 | 0.00 | 0.00 | 91 | 972.3 |
| 20260904035058 | 60 | 336 | 0.0 | 0.9 | 0.00 | 0.00 | 0.00 | 88 | 972.3 |
| 20260904034623 | 60 | 336 | 0.9 | 0.9 | 0.00 | 0.00 | 0.00 | 88 | 972.1 |
| 20260904034143 | 60 | 336 | 0.9 | 0.9 | 0.00 | 0.00 | 0.00 | 88 | 972.1 |
| 20260904033723 | 60 | 10 | 0.9 | 0.9 | 0.00 | 0.00 | 0.00 | 88 | 972.2 |
| 20260904033228 | 60 | 125 | 0.9 | 0.9 | 0.00 | 0.00 | 0.00 | 88 | 971.9 |
| 20260904032743 | 60 | 125 | 0.0 | 0.0 | 0.00 | 0.00 | 0.00 | 88 | 972.1 |
| 20260904032313 | 60 | 125 | 0.0 | 0.0 | 0.00 | 0.00 | 0.00 | 88 | 972.1 |
| 20260904031858 | 59 | 122 | 0.0 | 2.6 | 0.00 | 0.00 | 0.00 | 97 | 972.1 |
| 20260904031438 | 59 | 142 | 0.0 | 0.9 | 0.00 | 0.00 | 0.00 | 97 | 972.3 |
| 20260904031003 | 59 | 175 | 0.0 | 0.9 | 0.00 | 0.00 | 0.00 | 97 | 972.3 |
| 20260904030523 | 59 | 175 | 0.0 | 0.9 | 0.00 | 0.00 | 0.00 | 97 | 972.2 |
| 20260904030043 | 59 | 233 | 0.0 | 0.9 | 0.00 | 0.00 | 0.00 | 97 | 972.1 |
| 20260904025623 | 59 | 359 | 0.0 | 2.6 | 0.00 | 0.00 | 0.00 | 97 | 972.2 |
| 20260904025148 | 59 | 359 | 1.7 | 2.6 | 0.00 | 0.00 | 0.00 | 97 | 972.3 |
| 20260904024701 | 57 | 359 | 1.7 | 4.3 | 0.00 | 0.00 | 0.00 | 97 | 972.6 |
| 20260904024233 | 57 | 248 | 0.9 | 0.9 | 0.00 | 0.00 | 0.00 | 97 | 972.5 |
| 20260904023748 | 57 | 143 | 0.0 | 2.6 | 0.00 | 0.00 | 0.00 | 97 | 972.3 |
| 20260904023309 | 57 | 143 | 0.0 | 2.6 | 0.00 | 0.00 | 0.00 | 97 | 972.2 |
| 20260904022833 | 57 | 143 | 0.0 | 2.6 | 0.00 | 0.00 | 0.00 | 97 | 972.5 |
| 20260904022423 | 57 | 143 | 0.0 | 2.6 | 0.00 | 0.00 | 0.00 | 97 | 972.5 |
| 20260904021958 | 57 | 143 | 0.9 | 2.6 | 0.00 | 0.00 | 0.00 | 97 | 972.4 |
| 20260904021533 | 57 | 143 | 0.9 | 2.6 | 0.00 | 0.00 | 0.00 | 97 | 972.4 |
| 20260904021118 | 57 | 95 | 0.0 | 2.6 | 0.00 | 0.00 | 0.00 | 97 | 972.5 |
| 20260904020638 | 57 | 95 | 0.0 | 0.0 | 0.00 | 0.00 | 0.00 | 97 | 972.3 |
| 20260904020158 | 57 | 95 | 0.0 | 0.0 | 0.00 | 0.00 | 0.00 | 97 | 972.5 |
| 20260904015708 | 57 | 95 | 0.0 | 0.0 | 0.00 | 0.00 | 0.00 | 97 | 972.4 |
| 20260904015218 | 57 | 95 | 0.0 | 0.9 | 0.00 | 0.00 | 0.00 | 97 | 972.5 |
| 20260904014758 | 57 | 95 | 0.0 | 0.9 | 0.00 | 0.00 | 0.00 | 97 | 972.4 |
| 20260904014328 | 57 | 95 | 0.0 | 0.9 | 0.00 | 0.00 | 0.00 | 97 | 972.6 |
| 20260904013858 | 57 | 95 | 0.0 | 0.9 | 0.00 | 0.00 | 0.00 | 97 | 972.6 |
| 20260904013438 | 57 | 95 | 0.0 | 0.9 | 0.00 | 0.00 | 0.00 | 97 | 972.5 |
| 20260904013023 | 57 | 95 | 0.0 | 0.9 | 0.00 | 0.00 | 0.00 | 97 | 972.6 |
| 20260904012558 | 57 | 95 | 0.0 | 0.9 | 0.00 | 0.00 | 0.00 | 97 | 972.4 |
| 20260904012118 | 57 | 95 | 0.9 | 0.0 | 0.00 | 0.00 | 0.00 | 97 | 972.6 |
| 20260904011648 | 57 | 95 | 0.0 | 0.9 | 0.00 | 0.00 | 0.00 | 97 | 972.4 |
| 20260904011153 | 57 | 95 | 0.0 | 0.9 | 0.00 | 0.00 | 0.00 | 97 | 972.7 |
| 20260904010703 | 57 | 95 | 0.9 | 0.9 | 0.00 | 0.00 | 0.00 | 97 | 972.6 |
| 20260904010216 | 57 | 95 | 0.9 | 0.9 | 0.00 | 0.00 | 0.00 | 96 | 972.8 |
| 20260904005733 | 57 | 95 | 0.0 | 0.9 | 0.00 | 0.00 | 0.00 | 96 | 972.6 |
| 20260904005256 | 57 | 95 | 0.0 | 0.9 | 0.00 | 0.00 | 0.00 | 96 | 972.8 |
| 20260904004833 | 57 | 95 | 0.0 | 0.0 | 0.00 | 0.00 | 0.00 | 96 | 972.7 |
| 20260904004356 | 58 | 95 | 0.9 | 0.9 | 0.00 | 0.00 | 0.00 | 96 | 972.9 |
| 20260904003923 | 58 | 95 | 0.0 | 0.9 | 0.00 | 0.00 | 0.00 | 96 | 972.7 |
| 20260904003453 | 58 | 95 | 0.0 | 0.9 | 0.00 | 0.00 | 0.00 | 96 | 972.9 |
| 20260904003033 | 58 | 95 | 0.0 | 0.9 | 0.00 | 0.00 | 0.00 | 96 | 972.9 |
| 20260904002556 | 58 | 95 | 0.0 | 0.9 | 0.00 | 0.00 | 0.00 | 96 | 973.0 |
| 20260904002128 | 58 | 95 | 0.0 | 0.9 | 0.00 | 0.00 | 0.00 | 96 | 972.9 |
| 20260904001658 | 58 | 95 | 0.0 | 0.9 | 0.00 | 0.00 | 0.00 | 96 | 973.0 |
| 20260904001223 | 58 | 95 | 0.0 | 0.9 | 0.00 | 0.00 | 0.00 | 96 | 972.9 |
| 20260904000736 | 58 | 95 | 0.0 | 0.9 | 0.00 | 0.00 | 0.00 | 96 | 973.2 |
| 20260904000313 | 58 | 96 | 0.0 | 0.9 | 0.00 | 0.00 | 0.00 | 96 | 973.1 |
| 20260903235841 | 58 | 96 | 0.0 | 0.9 | 0.00 | 0.00 | 0.00 | 96 | 973.0 |
| 20260903235358 | 59 | 96 | 0.0 | 0.9 | 0.00 | 0.00 | 0.00 | 96 | 973.2 |
| 20260903234928 | 59 | 96 | 0.0 | 0.9 | 0.00 | 0.00 | 0.00 | 96 | 973.3 |
| 20260903234503 | 59 | 96 | 0.0 | 0.0 | 0.00 | 0.00 | 0.00 | 96 | 973.5 |
| 20260903234043 | 59 | 96 | 0.0 | 0.0 | 0.00 | 0.00 | 0.00 | 96 | 973.3 |
| 20260903233608 | 59 | 96 | 0.0 | 0.0 | 0.00 | 0.00 | 0.00 | 96 | 973.4 |
| 20260903233156 | 59 | 96 | 0.0 | 0.0 | 0.00 | 0.00 | 0.00 | 96 | 973.5 |
| 20260903232736 | 59 | 96 | 0.0 | 0.0 | 0.00 | 0.00 | 0.00 | 96 | 973.4 |
| 20260903232308 | 59 | 96 | 0.9 | 0.0 | 0.00 | 0.00 | 0.00 | 96 | 973.1 |
| 20260903231848 | 59 | 96 | 0.9 | 0.0 | 0.00 | 0.00 | 0.00 | 96 | 973.5 |
| 20260903231418 | 59 | 96 | 0.0 | 0.0 | 0.00 | 0.00 | 0.00 | 96 | 973.5 |
| 20260903230928 | 59 | 96 | 0.9 | 0.0 | 0.00 | 0.00 | 0.00 | 96 | 973.6 |
| 20260903230458 | 59 | 96 | 0.9 | 0.0 | 0.00 | 0.00 | 0.00 | 96 | 973.6 |
| 20260903230033 | 59 | 96 | 0.9 | 0.0 | 0.00 | 0.00 | 0.00 | 96 | 973.5 |
| 20260903225541 | 59 | 300 | 0.0 | 0.0 | 0.00 | 0.00 | 0.00 | 96 | 973.5 |
| 20260903225048 | 59 | 300 | 0.0 | 0.9 | 0.00 | 0.00 | 0.00 | 96 | 973.4 |
| 20260903224628 | 59 | 300 | 0.0 | 0.9 | 0.00 | 0.00 | 0.00 | 96 | 973.7 |
| 20260903224213 | 59 | 300 | 0.0 | 0.9 | 0.00 | 0.00 | 0.00 | 96 | 973.6 |
| 20260903223748 | 60 | 300 | 0.0 | 0.9 | 0.00 | 0.00 | 0.00 | 96 | 973.6 |
| 20260903223333 | 60 | 300 | 0.9 | 0.9 | 0.00 | 0.00 | 0.00 | 96 | 973.7 |
| 20260903222913 | 60 | 300 | 0.9 | 0.9 | 0.00 | 0.00 | 0.00 | 96 | 973.7 |
| 20260903222433 | 60 | 300 | 0.0 | 0.0 | 0.00 | 0.00 | 0.00 | 96 | 973.7 |
| 20260903221958 | 60 | 300 | 0.0 | 0.0 | 0.00 | 0.00 | 0.00 | 96 | 973.7 |
| 20260903221553 | 60 | 300 | 0.0 | 0.0 | 0.00 | 0.00 | 0.00 | 96 | 973.7 |
| 20260903221123 | 60 | 300 | 0.9 | 0.9 | 0.00 | 0.00 | 0.00 | 96 | 973.8 |
| 20260903220713 | 60 | 300 | 0.9 | 0.9 | 0.00 | 0.00 | 0.00 | 96 | 973.5 |
| 20260903220228 | 60 | 306 | 0.9 | 2.6 | 0.00 | 0.00 | 0.00 | 96 | 973.4 |
| 20260903215808 | 60 | 306 | 1.7 | 4.3 | 0.00 | 0.00 | 0.00 | 96 | 973.6 |
| 20260903215336 | 60 | 306 | 0.0 | 0.9 | 0.00 | 0.00 | 0.00 | 96 | 973.5 |
| 20260903214901 | 60 | 332 | 0.0 | 0.9 | 0.00 | 0.00 | 0.00 | 96 | 973.6 |
| 20260903214423 | 60 | 332 | 0.0 | 0.9 | 0.00 | 0.00 | 0.00 | 96 | 973.4 |
| 20260903213956 | 60 | 332 | 0.0 | 0.9 | 0.00 | 0.00 | 0.00 | 96 | 973.7 |
| 20260903213536 | 61 | 110 | 0.0 | 0.0 | 0.00 | 0.00 | 0.00 | 96 | 973.6 |
| 20260903213116 | 61 | 106 | 0.0 | 0.0 | 0.00 | 0.00 | 0.00 | 96 | 973.7 |
| 20260903212633 | 61 | 106 | 0.0 | 0.0 | 0.00 | 0.00 | 0.00 | 96 | 973.6 |
| 20260903212153 | 61 | 106 | 0.0 | 0.0 | 0.00 | 0.00 | 0.00 | 96 | 973.5 |
| 20260903211718 | 61 | 106 | 0.0 | 0.0 | 0.00 | 0.00 | 0.00 | 96 | 973.5 |
| 20260903211248 | 61 | 106 | 0.0 | 0.0 | 0.00 | 0.00 | 0.00 | 96 | 973.7 |
| 20260903210756 | 61 | 106 | 0.0 | 0.0 | 0.00 | 0.00 | 0.00 | 96 | 973.7 |
| 20260903210323 | 61 | 106 | 0.0 | 0.0 | 0.00 | 0.00 | 0.00 | 96 | 973.8 |
| 20260903205843 | 61 | 106 | 0.9 | 0.0 | 0.00 | 0.00 | 0.00 | 96 | 973.8 |
| 20260903205408 | 61 | 106 | 0.0 | 0.0 | 0.00 | 0.00 | 0.00 | 96 | 973.8 |
| 20260903204936 | 61 | 106 | 0.0 | 0.0 | 0.00 | 0.00 | 0.00 | 94 | 974.0 |
| 20260903204453 | 61 | 106 | 0.0 | 0.9 | 0.00 | 0.00 | 0.00 | 94 | 974.0 |
| 20260903204019 | 61 | 106 | 0.0 | 0.9 | 0.00 | 0.00 | 0.00 | 94 | 973.8 |
| 20260903203616 | 61 | 106 | 0.9 | 0.9 | 0.00 | 0.00 | 0.00 | 94 | 973.7 |
| 20260903203128 | 61 | 106 | 0.9 | 0.9 | 0.00 | 0.00 | 0.00 | 94 | 973.7 |
| 20260903202713 | 61 | 106 | 0.0 | 0.9 | 0.00 | 0.00 | 0.00 | 94 | 973.8 |
| 20260903202253 | 61 | 106 | 0.0 | 0.9 | 0.00 | 0.00 | 0.00 | 94 | 973.9 |
| 20260903201843 | 61 | 106 | 0.0 | 0.9 | 0.00 | 0.00 | 0.00 | 94 | 973.7 |
| 20260903201356 | 61 | 106 | 0.0 | 0.9 | 0.00 | 0.00 | 0.00 | 94 | 973.8 |
| 20260903200916 | 61 | 106 | 0.0 | 0.9 | 0.00 | 0.00 | 0.00 | 94 | 973.3 |
| 20260903200508 | 61 | 106 | 0.0 | 0.9 | 0.00 | 0.00 | 0.00 | 94 | 973.5 |
| 20260903200043 | 62 | 106 | 0.0 | 0.0 | 0.00 | 0.00 | 0.00 | 94 | 973.5 |
| 20260903195553 | 62 | 106 | 0.0 | 0.0 | 0.00 | 0.00 | 0.00 | 94 | 973.3 |
| 20260903195116 | 62 | 106 | 0.0 | 0.0 | 0.00 | 0.00 | 0.00 | 94 | 973.3 |
| 20260903194658 | 62 | 106 | 0.0 | 0.0 | 0.00 | 0.00 | 0.00 | 94 | 973.3 |
| 20260903194233 | 62 | 106 | 0.0 | 0.0 | 0.00 | 0.00 | 0.00 | 94 | 973.5 |
| 20260903193748 | 62 | 106 | 0.0 | 0.0 | 0.00 | 0.00 | 0.00 | 94 | 973.3 |
| 20260903193256 | 62 | 106 | 0.0 | 0.0 | 0.00 | 0.00 | 0.00 | 94 | 973.4 |
| 20260903192843 | 62 | 106 | 0.0 | 0.0 | 0.00 | 0.00 | 0.00 | 94 | 973.5 |
| 20260903192422 | 62 | 106 | 0.0 | 0.0 | 0.00 | 0.00 | 0.00 | 93 | 973.6 |
| 20260903192013 | 62 | 106 | 0.0 | 0.0 | 0.00 | 0.00 | 0.00 | 94 | 973.6 |
| 20260903191533 | 62 | 106 | 0.0 | 0.0 | 0.00 | 0.00 | 0.00 | 94 | 973.6 |
| 20260903191058 | 62 | 106 | 0.0 | 0.0 | 0.00 | 0.00 | 0.00 | 90 | 973.6 |
| 20260903190628 | 62 | 106 | 0.0 | 0.9 | 0.00 | 0.00 | 0.00 | 90 | 973.4 |
| 20260903190213 | 62 | 106 | 0.0 | 0.9 | 0.00 | 0.00 | 0.00 | 90 | 973.6 |
| 20260903185758 | 62 | 106 | 0.0 | 0.9 | 0.00 | 0.00 | 0.00 | 90 | 973.6 |
| 20260903185336 | 62 | 106 | 0.0 | 0.0 | 0.00 | 0.00 | 0.00 | 90 | 973.6 |
| 20260903184913 | 61 | 106 | 0.0 | 0.0 | 0.00 | 0.00 | 0.00 | 90 | 973.6 |
| 20260903184443 | 61 | 106 | 0.0 | 0.0 | 0.00 | 0.00 | 0.00 | 90 | 973.5 |
| 20260903183953 | 62 | 106 | 0.0 | 0.0 | 0.00 | 0.00 | 0.00 | 90 | 973.6 |
| 20260903183456 | 62 | 106 | 0.0 | 0.0 | 0.00 | 0.00 | 0.00 | 90 | 973.5 |
| 20260903183018 | 62 | 106 | 0.0 | 0.0 | 0.00 | 0.00 | 0.00 | 90 | 973.6 |
| 20260903182533 | 62 | 106 | 0.0 | 0.0 | 0.00 | 0.00 | 0.00 | 90 | 973.6 |
| 20260903182059 | 62 | 106 | 0.0 | 0.0 | 0.00 | 0.00 | 0.00 | 90 | 973.6 |
| 20260903181623 | 62 | 106 | 0.0 | 0.0 | 0.00 | 0.00 | 0.00 | 90 | 973.6 |
| 20260903181156 | 62 | 106 | 0.0 | 0.0 | 0.00 | 0.00 | 0.00 | 90 | 973.3 |
| 20260903180743 | 62 | 106 | 0.0 | 0.0 | 0.00 | 0.00 | 0.00 | 90 | 973.5 |
| 20260903180308 | 62 | 106 | 0.9 | 0.9 | 0.00 | 0.00 | 0.00 | 90 | 973.5 |
| 20260903175856 | 62 | 106 | 0.0 | 0.0 | 0.00 | 0.00 | 0.00 | 90 | 973.2 |
| 20260903175407 | 62 | 106 | 0.0 | 0.9 | 0.00 | 0.00 | 0.00 | 90 | 973.4 |
| 20260903174938 | 62 | 106 | 0.0 | 0.9 | 0.00 | 0.00 | 0.00 | 90 | 973.5 |
| 20260903174513 | 62 | 106 | 0.0 | 0.0 | 0.00 | 0.00 | 0.00 | 90 | 973.6 |
| 20260903174033 | 62 | 99 | 0.0 | 0.0 | 0.00 | 0.00 | 0.00 | 90 | 973.3 |
| 20260903173603 | 62 | 99 | 0.0 | 0.0 | 0.00 | 0.00 | 0.00 | 90 | 973.3 |
| 20260903173143 | 62 | 99 | 0.0 | 0.0 | 0.00 | 0.00 | 0.00 | 90 | 973.3 |
| 20260903172703 | 62 | 99 | 0.9 | 0.9 | 0.00 | 0.00 | 0.00 | 90 | 973.1 |
| 20260903172236 | 62 | 99 | 0.9 | 0.9 | 0.00 | 0.00 | 0.00 | 90 | 973.3 |
| 20260903171806 | 62 | 99 | 0.9 | 0.9 | 0.00 | 0.00 | 0.00 | 90 | 973.2 |
| 20260903171328 | 62 | 99 | 0.9 | 0.9 | 0.00 | 0.00 | 0.00 | 89 | 973.2 |
| 20260903170913 | 62 | 99 | 0.0 | 0.9 | 0.00 | 0.00 | 0.00 | 89 | 973.4 |
| 20260903170438 | 62 | 99 | 0.0 | 0.9 | 0.00 | 0.00 | 0.00 | 89 | 973.5 |
| 20260903170028 | 62 | 99 | 0.0 | 0.9 | 0.00 | 0.00 | 0.00 | 89 | 973.2 |
| 20260903165616 | 62 | 99 | 0.0 | 0.0 | 0.00 | 0.00 | 0.00 | 89 | 973.4 |
| 20260903165208 | 62 | 99 | 0.0 | 0.0 | 0.00 | 0.00 | 0.00 | 89 | 973.5 |
| 20260903164736 | 62 | 99 | 0.0 | 0.0 | 0.00 | 0.00 | 0.00 | 87 | 973.6 |
| 20260903164308 | 62 | 99 | 0.0 | 0.0 | 0.00 | 0.00 | 0.00 | 87 | 973.4 |
| 20260903163834 | 62 | 106 | 0.0 | 0.0 | 0.00 | 0.00 | 0.00 | 87 | 973.7 |
| 20260903163423 | 62 | 106 | 0.0 | 0.0 | 0.00 | 0.00 | 0.00 | 87 | 973.7 |
| 20260903162958 | 62 | 106 | 0.0 | 2.6 | 0.00 | 0.00 | 0.00 | 87 | 973.7 |
| 20260903162523 | 62 | 106 | 0.9 | 2.6 | 0.00 | 0.00 | 0.00 | 87 | 973.7 |
| 20260903162028 | 62 | 106 | 0.0 | 2.6 | 0.00 | 0.00 | 0.00 | 87 | 973.7 |
| 20260903161613 | 62 | 106 | 0.0 | 2.6 | 0.00 | 0.00 | 0.00 | 87 | 973.7 |
| 20260903161143 | 62 | 106 | 0.0 | 0.9 | 0.00 | 0.00 | 0.00 | 87 | 973.7 |
| 20260903160713 | 62 | 111 | 0.0 | 0.9 | 0.00 | 0.00 | 0.00 | 87 | 973.9 |
| 20260903160253 | 62 | 69 | 0.0 | 0.0 | 0.00 | 0.00 | 0.00 | 87 | 974.2 |
| 20260903155828 | 62 | 69 | 0.0 | 0.0 | 0.00 | 0.00 | 0.00 | 87 | 974.0 |
| 20260903155353 | 62 | 69 | 0.0 | 0.0 | 0.00 | 0.00 | 0.00 | 87 | 974.1 |
| 20260903154918 | 62 | 69 | 0.0 | 0.0 | 0.00 | 0.00 | 0.00 | 87 | 973.9 |
| 20260903154436 | 61 | 69 | 0.0 | 0.0 | 0.00 | 0.00 | 0.00 | 87 | 974.0 |
| 20260903153948 | 62 | 69 | 0.0 | 0.0 | 0.00 | 0.00 | 0.00 | 87 | 974.1 |
| 20260903153533 | 62 | 69 | 0.0 | 0.0 | 0.00 | 0.00 | 0.00 | 87 | 974.2 |
| 20260903153048 | 62 | 69 | 0.0 | 0.0 | 0.00 | 0.00 | 0.00 | 87 | 973.9 |
| 20260903152623 | 62 | 69 | 0.0 | 0.0 | 0.00 | 0.00 | 0.00 | 87 | 974.1 |
| 20260903152138 | 62 | 68 | 0.9 | 0.9 | 0.00 | 0.00 | 0.00 | 87 | 974.1 |
| 20260903151713 | 62 | 67 | 0.0 | 0.9 | 0.00 | 0.00 | 0.00 | 87 | 973.9 |
| 20260903151236 | 62 | 67 | 0.0 | 0.9 | 0.00 | 0.00 | 0.00 | 87 | 974.0 |
| 20260903150818 | 62 | 65 | 0.0 | 0.9 | 0.00 | 0.00 | 0.00 | 87 | 974.0 |
| 20260903150346 | 62 | 65 | 0.0 | 0.9 | 0.00 | 0.00 | 0.00 | 87 | 974.0 |
| 20260903145928 | 62 | 65 | 0.0 | 0.0 | 0.00 | 0.00 | 0.00 | 87 | 973.8 |
| 20260903145513 | 62 | 66 | 0.0 | 0.0 | 0.00 | 0.00 | 0.00 | 87 | 973.9 |
| 20260903145053 | 62 | 338 | 0.0 | 0.9 | 0.00 | 0.00 | 0.00 | 88 | 973.9 |
| 20260903144153 | 62 | 338 | 0.0 | 0.9 | 0.00 | 0.00 | 0.00 | 85 | 974.1 |
| 20260903143733 | 62 | 338 | 0.9 | 0.9 | 0.00 | 0.00 | 0.00 | 85 | 974.2 |
| 20260903143253 | 62 | 338 | 0.9 | 0.9 | 0.00 | 0.00 | 0.00 | 85 | 974.0 |
| 20260903142813 | 62 | 338 | 0.0 | 0.9 | 0.00 | 0.00 | 0.00 | 85 | 974.4 |
| 20260903142343 | 63 | 338 | 0.0 | 2.6 | 0.00 | 0.00 | 0.00 | 85 | 974.2 |
| 20260903141853 | 63 | 335 | 0.0 | 0.0 | 0.00 | 0.00 | 0.00 | 85 | 974.6 |
| 20260903141403 | 63 | 335 | 0.9 | 2.6 | 0.00 | 0.00 | 0.00 | 83 | 974.6 |
| 20260903140903 | 63 | 335 | 0.9 | 2.6 | 0.00 | 0.00 | 0.00 | 83 | 974.4 |
| 20260903140436 | 63 | 349 | 0.0 | 2.6 | 0.00 | 0.00 | 0.00 | 83 | 974.5 |
| 20260903140008 | 63 | 286 | 1.7 | 2.6 | 0.00 | 0.00 | 0.00 | 83 | 974.3 |
| 20260903135533 | 63 | 286 | 1.7 | 4.3 | 0.00 | 0.00 | 0.00 | 83 | 974.2 |
| 20260903135058 | 63 | 286 | 1.7 | 4.3 | 0.00 | 0.00 | 0.00 | 83 | 974.4 |
| 20260903134623 | 64 | 286 | 1.7 | 4.3 | 0.00 | 0.00 | 0.00 | 83 | 974.2 |
| 20260903134136 | 64 | 9 | 0.9 | 2.6 | 0.00 | 0.00 | 0.00 | 81 | 974.2 |
| 20260903133653 | 64 | 102 | 0.9 | 0.9 | 0.00 | 0.00 | 0.00 | 81 | 974.2 |
| 20260903133238 | 64 | 102 | 1.7 | 0.9 | 0.00 | 0.00 | 0.00 | 81 | 974.2 |
| 20260903132758 | 64 | 306 | 0.0 | 0.9 | 0.00 | 0.00 | 0.00 | 81 | 974.1 |
| 20260903132333 | 63 | 306 | 1.7 | 0.9 | 0.00 | 0.00 | 0.00 | 78 | 974.2 |
| 20260903131853 | 65 | 306 | 1.7 | 0.9 | 0.00 | 0.00 | 0.00 | 68 | 974.4 |
| 20260903131433 | 65 | 306 | 0.9 | 0.9 | 0.00 | 0.00 | 0.00 | 68 | 974.1 |
| 20260903131013 | 65 | 274 | 0.9 | 4.3 | 0.00 | 0.00 | 0.00 | 68 | 974.2 |
| 20260903130533 | 68 | 265 | 0.0 | 7.8 | 0.00 | 0.00 | 0.00 | 68 | 974.3 |
| 20260903130113 | 68 | 321 | 7.8 | 4.3 | 0.00 | 0.00 | 0.00 | 57 | 974.6 |
| 20260903125656 | 68 | 321 | 7.8 | 7.8 | 0.00 | 0.00 | 0.00 | 57 | 974.4 |
| 20260903125246 | 68 | 321 | 7.8 | 11.3 | 0.00 | 0.00 | 0.00 | 57 | 974.2 |
| 20260903124816 | 68 | 334 | 6.1 | 15.6 | 0.00 | 0.00 | 0.00 | 57 | 974.3 |
| 20260903124401 | 68 | 159 | 4.3 | 7.8 | 0.00 | 0.00 | 0.00 | 57 | 974.3 |
| 20260903123956 | 68 | 159 | 3.5 | 7.8 | 0.00 | 0.00 | 0.00 | 57 | 974.3 |
| 20260903123523 | 68 | 159 | 3.5 | 6.1 | 0.00 | 0.00 | 0.00 | 57 | 974.1 |
| 20260903123113 | 69 | 159 | 3.5 | 6.1 | 0.00 | 0.00 | 0.00 | 52 | 973.8 |
| 20260903122638 | 69 | 324 | 0.0 | 4.3 | 0.00 | 0.00 | 0.00 | 52 | 973.8 |
| 20260903122213 | 69 | 159 | 0.9 | 11.3 | 0.00 | 0.00 | 0.00 | 52 | 973.7 |
| 20260903121723 | 69 | 341 | 2.6 | 11.3 | 0.00 | 0.00 | 0.00 | 52 | 974.0 |
| 20260903121233 | 69 | 341 | 1.7 | 7.8 | 0.00 | 0.00 | 0.00 | 52 | 974.0 |
| 20260903120808 | 68 | 341 | 0.9 | 7.8 | 0.00 | 0.00 | 0.00 | 50 | 974.0 |
| 20260903120328 | 68 | 289 | 4.3 | 4.3 | 0.00 | 0.00 | 0.00 | 50 | 974.2 |
| 20260903115916 | 68 | 289 | 6.1 | 4.3 | 0.00 | 0.00 | 0.00 | 50 | 974.1 |
| 20260903115513 | 68 | 289 | 1.7 | 4.3 | 0.00 | 0.00 | 0.00 | 50 | 974.2 |
| 20260903115048 | 69 | 159 | 1.7 | 12.2 | 0.00 | 0.00 | 0.00 | 50 | 974.2 |
| 20260903114618 | 69 | 159 | 1.7 | 2.6 | 0.00 | 0.00 | 0.00 | 50 | 974.3 |
| 20260903114158 | 69 | 159 | 1.7 | 7.8 | 0.00 | 0.00 | 0.00 | 50 | 974.5 |
| 20260903113728 | 69 | 159 | 7.8 | 11.3 | 0.00 | 0.00 | 0.00 | 50 | 974.5 |
| 20260903113256 | 69 | 159 | 1.7 | 9.6 | 0.00 | 0.00 | 0.00 | 50 | 974.4 |
| 20260903112843 | 69 | 345 | 7.0 | 11.3 | 0.00 | 0.00 | 0.00 | 50 | 974.3 |
| 20260903112423 | 69 | 216 | 3.5 | 15.6 | 0.00 | 0.00 | 0.00 | 51 | 974.5 |
| 20260903111948 | 69 | 216 | 3.5 | 13.9 | 0.00 | 0.00 | 0.00 | 51 | 974.6 |
| 20260903111538 | 69 | 216 | 1.7 | 6.1 | 0.00 | 0.00 | 0.00 | 52 | 974.4 |
| 20260903111103 | 69 | 263 | 6.1 | 11.3 | 0.00 | 0.00 | 0.00 | 52 | 974.4 |
| 20260903110623 | 69 | 149 | 3.5 | 7.8 | 0.00 | 0.00 | 0.00 | 52 | 974.7 |
| 20260903110123 | 69 | 159 | 9.6 | 7.8 | 0.00 | 0.00 | 0.00 | 53 | 974.4 |
| 20260903105656 | 68 | 203 | 5.2 | 11.3 | 0.00 | 0.00 | 0.00 | 53 | 974.6 |
| 20260903105233 | 68 | 203 | 5.2 | 11.3 | 0.00 | 0.00 | 0.00 | 53 | 974.6 |
| 20260903104823 | 67 | 203 | 0.9 | 4.3 | 0.00 | 0.00 | 0.00 | 53 | 974.8 |
| 20260903104358 | 67 | 317 | 0.9 | 7.8 | 0.00 | 0.00 | 0.00 | 53 | 974.5 |
| 20260903103923 | 67 | 136 | 4.3 | 9.6 | 0.00 | 0.00 | 0.00 | 53 | 974.7 |
| 20260903103514 | 68 | 136 | 7.0 | 9.6 | 0.00 | 0.00 | 0.00 | 53 | 974.8 |
| 20260903103102 | 68 | 114 | 9.6 | 12.2 | 0.00 | 0.00 | 0.00 | 48 | 974.6 |
| 20260903102656 | 68 | 114 | 7.0 | 9.6 | 0.00 | 0.00 | 0.00 | 48 | 974.8 |
| 20260903102213 | 68 | 321 | 11.3 | 19.1 | 0.00 | 0.00 | 0.00 | 48 | 974.9 |
| 20260903101743 | 69 | 260 | 17.4 | 7.8 | 0.00 | 0.00 | 0.00 | 48 | 974.9 |
| 20260903101316 | 69 | 353 | 10.4 | 7.8 | 0.00 | 0.00 | 0.00 | 48 | 975.1 |
| 20260903100848 | 69 | 315 | 10.4 | 7.8 | 0.00 | 0.00 | 0.00 | 48 | 975.0 |
| 20260903100413 | 69 | 315 | 7.8 | 7.8 | 0.00 | 0.00 | 0.00 | 48 | 975.0 |
| 20260903095948 | 69 | 265 | 7.8 | 12.2 | 0.00 | 0.00 | 0.00 | 48 | 975.0 |